Theta_e
326 327 328 328 329 329 329 329 328 325 323 323 326 328 329 329 329 329 328 326 327 329 329 327 325 324 325 324 325 327 327 328 328 328 328 328 328 329 328 327 326 326 325 325 325 325 325 325 326 326 326 326 326 327 326 326 327 327 326 326 325 324 322 319 319 318 316 315 315 315 314 312 311 313 316 315 312 310 310 308 306 306 307 309 309
326 327 328 329 329 328 329 329 328 328 327 326 328 329 329 329 329 328 326 326 327 329 328 326 325 325 325 324 324 325 325 326 328 328 328 328 328 328 327 327 326 325 325 325 325 325 325 325 325 326 326 326 326 326 326 326 326 326 325 324 323 322 321 320 319 318 316 316 315 315 315 313 312 311 312 314 312 310 308 307 306 306 307 309 309
326 327 327 328 327 328 329 329 328 329 329 329 329 330 329 329 328 327 326 327 328 329 328 327 326 327 326 325 323 323 323 324 326 327 326 328 328 327 327 326 326 325 325 325 325 325 325 325 325 326 326 325 326 326 326 326 326 326 323 321 321 321 320 320 320 320 319 318 317 316 315 314 313 312 310 310 310 308 307 306 307 307 307 308 309
325 326 327 327 327 327 328 328 328 329 329 328 328 329 329 328 327 326 327 329 329 329 328 327 328 328 327 325 324 322 321 323 325 325 326 327 328 327 327 326 326 325 325 325 325 325 325 325 325 326 325 325 326 326 326 326 326 325 322 320 320 320 320 320 321 321 321 321 320 319 317 314 314 313 311 309 308 307 307 307 309 309 310 310 310
322 324 325 327 328 327 327 328 328 328 328 328 328 329 329 328 326 325 327 329 329 329 329 328 329 329 327 325 324 322 321 322 323 324 325 326 327 326 326 326 325 325 324 324 325 325 325 325 325 325 325 325 325 326 326 326 325 325 323 321 320 321 321 321 321 321 321 321 322 321 319 316 314 314 312 309 308 307 307 309 310 311 311 311 312
321 322 324 325 327 328 328 328 329 328 329 329 329 329 329 327 326 325 325 326 329 329 329 328 328 328 328 326 324 322 321 321 322 323 323 323 324 324 324 325 325 324 324 324 325 325 326 326 325 325 325 326 326 325 326 326 325 326 325 322 321 321 321 321 322 322 321 321 321 322 321 318 315 314 312 310 309 308 308 309 311 312 312 312 312
320 321 322 323 324 326 327 328 329 329 329 329 329 328 329 328 327 326 325 326 328 329 328 327 327 328 327 325 324 322 321 320 320 321 321 320 321 321 322 323 323 322 322 323 324 325 326 326 325 326 326 326 326 326 326 326 325 326 325 322 321 321 321 320 321 321 321 321 321 321 321 318 316 314 313 311 310 310 310 310 311 312 312 312 312
319 320 321 322 323 324 326 327 328 328 329 329 328 328 329 329 327 327 326 326 328 328 328 327 327 327 326 325 324 322 321 320 320 320 319 319 320 321 322 322 322 321 321 322 323 324 326 326 326 326 326 326 326 326 326 325 325 325 323 322 321 320 319 319 319 320 320 320 320 320 319 317 316 315 314 312 312 312 312 312 312 312 311 311 311
318 319 321 323 323 323 324 325 326 327 328 328 329 328 329 329 328 328 327 326 327 327 327 327 327 327 326 325 325 323 321 321 321 320 319 320 321 321 322 322 322 321 322 323 324 324 325 326 326 326 326 326 326 325 323 322 323 323 322 320 320 319 318 317 318 318 318 319 319 318 317 316 315 315 315 314 313 313 312 312 313 312 312 312 312
317 318 319 321 322 322 323 324 325 325 326 327 328 329 329 329 329 329 327 326 326 327 328 327 327 326 325 326 325 323 322 322 322 322 321 321 321 321 321 321 322 321 322 323 324 325 325 326 327 326 325 325 325 322 320 320 320 320 320 319 318 318 318 318 317 317 317 317 317 316 315 315 315 315 315 314 313 313 313 313 313 313 314 315 315
317 318 319 320 321 321 322 323 323 324 325 326 326 327 328 329 329 329 328 326 325 327 328 326 327 327 325 325 324 323 324 324 322 322 322 321 321 320 320 321 321 321 323 323 323 325 326 326 325 324 324 324 322 320 319 320 319 319 319 318 318 318 318 318 317 317 317 316 316 315 315 314 314 314 314 314 314 314 314 314 315 315 317 317 318
317 318 319 319 320 320 321 322 322 323 324 325 326 326 327 328 328 329 329 327 325 326 327 326 326 326 326 325 323 323 325 324 322 322 322 321 321 320 320 320 321 321 322 322 323 325 326 324 323 323 323 322 320 319 319 319 319 319 318 318 318 318 318 318 318 318 317 317 317 317 316 316 316 316 316 316 316 316 317 317 318 318 318 318 318
316 317 317 318 319 320 320 321 321 323 323 324 325 325 326 326 327 328 328 326 324 325 327 326 325 326 325 323 321 323 325 324 322 322 321 321 321 321 321 320 320 321 322 321 323 325 324 323 322 321 321 320 319 319 319 319 319 319 318 318 318 318 318 318 318 318 318 318 318 318 318 318 318 317 318 317 317 317 317 318 318 317 317 317 317
315 315 316 316 317 319 320 320 321 322 323 324 324 325 325 325 326 328 328 326 324 325 325 325 325 325 322 319 320 323 325 323 322 322 321 321 321 321 321 321 320 321 321 321 323 323 322 321 321 320 319 319 319 319 319 319 319 318 318 319 319 319 319 319 318 318 318 318 318 318 317 317 317 317 317 317 317 316 316 316 316 316 316 316 316
315 315 315 315 316 317 318 319 320 321 323 324 324 324 325 325 326 327 327 326 325 325 325 325 325 323 320 319 322 324 324 323 323 322 321 320 320 320 321 320 320 321 320 321 323 322 321 320 320 319 319 319 319 319 319 319 319 318 318 318 317 317 317 318 318 318 317 317 317 316 316 316 316 316 316 316 316 316 316 316 316 316 315 315 315
314 315 315 314 314 314 316 317 319 319 321 323 324 324 324 324 324 326 327 326 325 325 325 325 324 322 319 320 322 324 323 323 322 321 320 318 317 318 319 319 320 321 320 321 323 323 321 321 320 320 319 319 319 319 319 319 318 318 317 316 315 315 315 316 316 315 314 314 314 314 314 314 314 314 315 315 315 315 315 315 314 314 314 313 313
313 314 315 314 314 314 314 315 317 318 319 321 322 322 323 322 323 325 326 325 326 325 324 324 324 322 320 320 322 323 323 322 321 321 319 317 316 317 319 319 320 322 321 321 322 323 321 320 320 320 320 320 319 318 318 317 317 317 317 316 316 315 315 314 313 313 312 312 312 312 312 312 313 313 314 314 314 314 314 313 312 311 311 310 310
312 313 314 314 314 314 313 314 315 315 316 318 320 320 320 320 320 322 324 325 325 324 322 323 324 323 321 320 321 322 322 321 321 321 319 317 316 317 318 319 320 322 322 322 322 322 321 320 319 319 319 319 318 318 318 318 318 317 316 315 315 314 314 313 313 313 313 312 312 311 311 311 312 312 313 313 313 313 312 311 310 309 308 306 306
310 312 313 314 314 314 313 313 313 314 313 314 316 318 318 318 318 319 321 323 323 321 320 322 322 321 321 320 319 320 322 321 321 320 319 317 317 317 318 319 319 321 321 321 321 321 320 320 319 318 318 319 319 318 318 318 318 316 315 314 314 314 314 313 313 313 313 312 312 312 312 313 312 312 312 312 311 311 309 308 306 305 304 303 302
307 309 311 312 313 314 313 313 312 312 312 312 312 314 314 315 315 316 318 319 320 318 317 317 317 317 319 319 319 320 321 321 320 319 318 317 317 317 318 318 319 320 320 320 320 320 319 319 318 318 318 317 318 319 319 318 317 315 314 314 314 314 314 314 313 313 313 313 313 313 312 312 312 311 310 309 307 306 305 303 302 302 301 301 300
305 307 309 311 312 313 313 313 312 311 311 311 311 311 311 312 313 314 314 315 316 315 315 315 316 316 318 318 319 319 319 319 319 319 318 318 318 319 318 318 319 319 319 319 319 318 318 317 317 317 316 315 316 317 316 315 314 313 313 313 313 313 313 314 314 313 313 313 312 311 311 309 308 307 306 305 303 302 302 302 301 301 301 300 300
302 304 306 308 309 310 311 312 312 311 311 311 311 311 311 310 311 313 314 314 314 314 315 316 316 317 318 318 318 319 319 319 319 319 319 319 319 319 319 319 319 319 319 319 318 316 316 316 316 316 315 314 313 314 313 313 312 312 312 312 312 312 313 313 313 312 311 310 308 307 305 304 304 303 303 302 302 302 301 301 301 300 300 299 298
300 301 303 305 307 307 309 310 311 311 311 312 312 312 312 311 311 311 312 313 314 314 314 315 315 316 317 317 317 317 317 318 318 318 318 318 318 318 318 318 318 317 317 317 316 315 315 315 314 314 314 313 312 312 312 311 311 311 311 311 312 312 311 309 307 305 303 301 301 301 302 302 302 302 302 302 302 301 300 299 299 298 298 298 298
300 300 301 303 304 305 306 307 309 310 311 311 311 312 311 311 311 310 310 311 312 312 312 312 312 313 314 314 314 314 314 315 315 316 315 315 315 315 314 315 315 314 314 314 314 314 313 313 312 312 312 311 310 310 310 311 311 311 310 309 308 306 303 301 300 299 299 300 301 302 302 302 303 302 302 301 299 298 298 297 297 297 298 298 299
300 300 300 300 301 303 304 305 306 307 308 309 310 309 309 309 309 309 309 309 310 310 309 309 310 310 310 310 310 311 311 312 312 313 312 312 313 312 312 312 312 312 312 312 313 313 313 312 312 312 312 312 311 311 311 310 309 307 305 303 301 300 300 300 301 302 302 303 303 303 303 303 302 301 300 298 297 297 297 297 297 297 298 299 299
301 301 300 300 300 300 301 302 303 305 306 307 307 307 307 307 306 306 307 307 308 308 308 308 308 308 308 308 307 308 308 308 309 309 309 309 309 309 310 311 311 311 311 312 312 312 312 312 311 310 310 309 308 307 305 304 302 301 301 301 301 302 302 303 303 304 303 303 303 302 302 301 300 298 297 297 297 296 296 296 297 297 298 299 299
301 301 300 300 299 299 299 300 300 301 303 305 306 306 305 304 304 304 304 305 305 305 305 305 306 306 306 306 306 306 306 306 306 306 306 306 306 307 308 309 309 310 310 310 310 309 307 307 306 305 304 303 302 301 300 300 301 301 302 302 303 303 303 303 303 302 302 301 300 300 299 298 297 297 297 296 296 296 296 297 297 297 298 299 299
300 300 300 300 300 299 299 299 298 299 299 301 303 304 305 304 303 303 303 303 303 303 303 303 303 303 303 303 303 303 304 304 304 305 305 305 305 306 306 306 306 307 307 306 305 303 301 301 300 300 300 300 300 300 301 301 302 302 302 302 302 302 302 301 300 299 299 298 298 297 297 297 297 296 296 296 296 297 297 297 297 297 297 298 298
299 300 300 300 300 299 299 299 299 298 298 298 299 300 301 302 303 303 303 302 302 302 302 302 301 301 300 300 299 299 300 300 301 301 302 302 303 303 302 302 301 301 301 300 300 299 299 299 299 300 300 301 301 301 301 302 302 302 301 301 301 300 299 298 298 297 297 296 296 296 296 296 296 296 296 296 297 297 296 297 296 296 297 297 297
298 298 298 299 300 300 300 299 299 299 299 298 298 298 298 298 299 300 300 300 301 301 301 301 300 300 300 299 298 298 298 298 298 298 299 299 299 299 298 298 298 298 299 299 299 299 299 300 301 301 301 301 301 302 302 301 301 301 300 300 299 298 297 297 297 296 296 296 296 297 296 296 296 297 296 297 297 297 297 297 297 297 297 297 297
297 297 297 297 298 299 300 300 300 300 300 299 299 299 298 298 298 298 298 298 298 298 298 298 298 298 298 299 298 298 298 297 297 297 297 297 298 298 298 299 300 300 300 300 301 301 301 301 301 302 302 302 302 301 301 301 301 300 300 299 298 297 297 297 297 297 297 297 297 297 297 297 297 297 297 296 296 296 296 296 296 296 296 296 296
296 296 296 297 297 298 299 300 300 300 300 300 300 299 299 299 298 298 298 297 297 296 296 297 297 297 297 298 298 297 297 297 297 297 297 298 299 299 300 300 301 301 301 301 301 302 302 301 301 301 301 301 301 301 301 300 300 299 298 297 297 297 297 297 297 297 297 297 297 297 297 297 297 296 296 296 295 295 295 295 295 295 295 295 295
296 297 297 298 297 297 298 299 300 300 300 300 300 300 300 299 299 298 298 297 297 296 296 296 296 297 297 297 297 297 297 297 297 298 298 299 300 300 300 301 301 301 301 301 301 301 301 301 301 301 301 300 300 300 299 299 298 298 297 297 297 297 297 297 297 297 297 297 297 297 296 296 296 295 295 295 294 294 294 294 294 294 294 294 294
297 297 298 297 297 298 298 299 299 299 299 299 299 299 299 299 299 299 299 298 298 298 297 297 296 296 296 296 296 296 296 297 297 297 298 298 299 299 300 300 300 300 300 300 300 301 301 300 300 300 299 299 298 298 298 297 297 297 297 297 297 297 297 296 296 296 296 296 296 296 296 295 295 294 294 294 294 294 294 294 294 293 293 293 293
297 297 297 297 298 298 298 299 299 299 299 299 299 299 299 299 299 299 299 298 298 298 298 297 297 296 296 296 295 295 295 295 296 296 297 297 297 297 298 298 298 298 299 299 299 299 299 299 299 298 297 297 297 297 297 297 297 297 297 297 296 296 296 296 296 296 296 296 295 295 294 294 294 294 294 294 293 293 293 293 293 293 293 293 292
297 297 297 297 297 298 298 298 298 298 298 298 298 299 299 299 299 299 299 298 298 297 297 297 297 296 296 296 296 295 295 294 295 295 295 296 296 296 296 296 296 296 297 297 297 297 298 297 297 297 297 297 297 296 296 297 297 297 296 296 296 296 296 296 296 296 295 295 294 294 294 294 294 293 293 293 293 292 292 292 292 292 292 292 292
297 297 297 297 297 297 297 297 297 297 297 297 298 298 298 299 299 299 299 298 297 297 297 296 296 296 296 296 295 295 295 295 295 294 295 295 296 295 296 296 296 296 297 297 297 297 297 297 297 296 296 296 297 297 296 296 296 296 296 296 296 296 296 295 295 295 294 294 294 294 293 293 293 293 292 292 292 292 292 292 292 292 291 291 291
297 297 297 297 297 297 297 297 296 296 296 296 297 297 298 298 298 298 298 298 297 296 296 296 296 295 295 295 295 295 295 295 295 294 295 295 296 296 296 297 297 297 297 297 297 297 296 296 296 296 296 296 296 296 296 296 296 296 296 296 295 295 295 294 294 294 294 294 294 293 293 293 292 292 292 292 291 291 291 291 291 291 291 291 291
298 298 297 297 297 297 297 296 296 296 296 296 296 296 297 297 298 298 298 297 296 296 296 295 295 295 295 294 294 294 294 294 294 294 295 296 296 296 297 298 298 297 297 297 296 296 296 296 296 296 296 296 296 296 296 296 295 295 295 294 294 294 293 293 293 293 293 293 293 293 292 292 292 291 291 291 291 291 291 291 291 291 291 291 291
298 298 298 297 297 297 297 297 297 296 296 296 295 296 296 297 297 298 298 297 296 295 295 295 295 295 294 294 293 293 293 294 294 295 295 296 296 296 297 297 297 297 297 296 295 295 295 296 295 295 295 295 295 295 295 294 294 293 293 293 293 293 293 292 292 292 292 292 292 292 291 291 291 291 291 291 290 290 290 290 291 290 290 290 290
297 298 298 297 297 297 297 297 296 296 296 296 295 295 296 296 297 298 297 296 296 296 295 295 295 295 294 293 293 293 293 294 294 295 295 295 295 296 297 297 297 296 296 295 295 295 295 295 295 294 294 294 294 293 293 293 293 293 293 293 293 293 292 292 291 291 291 291 291 291 290 290 290 290 290 290 290 290 290 290 290 290 290 290 289
296 297 297 297 297 297 297 297 296 296 296 296 295 295 295 296 297 297 297 296 296 296 295 295 295 294 294 293 293 292 292 293 294 294 294 294 295 295 296 296 296 296 296 295 295 295 295 294 294 294 294 294 293 293 293 293 293 293 293 293 292 292 292 291 291 291 290 290 290 290 290 290 290 290 290 290 290 290 290 290 290 290 290 289 289
297 297 297 297 297 297 297 296 296 296 296 296 295 295 294 295 296 297 296 296 296 295 295 295 295 294 294 294 293 292 292 292 293 293 294 294 294 294 295 296 296 296 295 295 295 295 294 294 293 294 294 294 293 293 293 293 293 293 293 292 292 291 291 291 291 291 290 290 290 290 290 290 290 290 290 290 290 290 290 290 290 290 290 289 289
296 297 297 297 297 297 297 297 296 296 296 296 295 295 294 295 296 296 296 296 296 295 295 295 295 295 294 294 293 293 292 292 292 293 293 293 293 294 294 295 295 295 295 295 295 294 294 293 293 293 294 294 294 293 293 293 293 293 292 291 290 290 290 290 290 290 290 290 290 290 290 290 290 290 290 290 290 290 289 290 290 290 290 290 289
296 296 296 296 296 296 297 297 297 296 296 296 296 295 295 294 295 295 296 296 296 295 295 295 294 295 294 294 294 293 293 292 292 292 292 293 293 293 293 294 294 295 295 295 295 294 294 293 293 293 293 293 294 294 293 293 292 291 290 289 289 289 289 289 290 290 290 290 290 290 290 289 289 289 289 289 289 289 289 289 289 289 289 290 290
296 297 297 297 296 296 297 297 297 296 296 296 296 295 295 295 294 295 296 296 296 295 295 294 294 294 294 294 294 294 293 293 292 291 291 292 292 292 292 292 293 294 294 294 294 294 294 294 293 293 293 293 293 293 293 292 291 290 288 288 288 289 289 289 290 290 290 290 290 289 289 289 289 289 288 288 288 288 288 288 288 289 289 289 290
295 296 297 297 297 297 297 297 297 297 296 296 296 296 296 295 294 294 295 295 296 295 295 295 294 294 294 294 294 294 294 293 293 292 291 291 291 292 291 291 292 293 294 294 294 294 294 294 293 293 293 293 293 293 292 290 289 288 288 288 289 289 289 290 290 290 290 290 290 289 289 289 288 287 287 286 286 286 286 286 286 287 287 288 289
293 295 297 297 297 297 297 297 297 297 297 297 296 296 296 295 295 294 294 295 295 295 295 295 294 293 294 294 294 294 293 293 293 292 292 291 290 290 290 290 291 292 293 293 293 293 293 293 293 293 293 292 292 290 289 288 288 288 289 289 290 290 290 290 290 290 290 289 289 289 288 287 287 286 286 286 286 286 286 285 285 285 286 286 287
292 293 295 296 295 295 295 295 295 296 296 296 296 296 296 296 295 295 294 295 295 295 295 295 293 293 293 294 294 294 293 293 293 293 292 292 291 290 290 289 289 290 291 291 292 293 293 292 292 291 291 290 289 288 288 289 289 290 290 290 290 290 290 290 290 290 289 289 288 288 287 286 286 286 286 286 286 286 286 286 285 285 285 285 286
291 291 292 293 294 293 292 293 294 295 295 295 296 296 296 296 296 295 295 295 295 295 295 294 294 293 294 294 294 294 293 293 293 293 292 292 292 291 290 289 289 289 289 289 290 290 291 290 290 289 289 289 289 289 290 290 290 290 290 290 290 290 290 289 289 288 288 288 287 287 286 286 286 286 286 286 286 286 286 286 285 285 285 285 285
292 291 291 292 293 292 292 293 294 295 295 295 295 296 296 296 296 296 295 295 295 295 295 294 294 294 294 294 294 294 293 293 294 293 293 293 293 292 291 290 289 289 289 289 289 289 289 289 289 289 289 290 290 290 290 290 290 290 290 290 289 289 288 288 287 287 287 286 286 286 286 286 286 286 286 285 285 285 285 285 285 285 285 285 286
Wind_Speed
13 14 15 16 16 14 13 13 13 15 15 15 16 17 19 19 19 20 21 21 21 22 23 21 19 18 18 20 20 20 20 20 19 19 18 19 19 18 18 18 17 17 17 17 17 16 15 14 14 13 12 12 12 11 9 9 11 9 8 9 9 9 7 7 10 11 11 10 8 7 6 4 4 6 8 9 8 7 7 5 4 4 4 5 5
12 11 11 12 13 11 12 12 14 16 16 16 16 17 19 20 20 21 21 22 22 23 23 20 17 17 17 19 20 20 20 20 20 19 19 18 18 18 18 17 17 17 18 17 16 15 15 14 15 14 13 13 12 12 10 10 11 10 9 10 9 10 10 8 8 9 9 7 6 5 5 4 4 4 5 8 8 7 6 5 4 4 5 6 6
12 10 9 9 9 10 12 12 13 15 15 15 17 19 20 20 21 22 22 22 23 24 24 21 18 17 17 18 19 19 19 20 20 20 19 19 19 19 18 17 17 18 17 16 15 14 14 15 15 14 14 14 13 12 11 11 12 11 11 11 11 11 11 9 7 7 6 5 4 4 3 4 4 3 4 6 8 8 7 6 5 5 6 6 6
11 10 9 10 11 12 12 12 13 14 13 14 18 21 22 22 23 23 23 24 24 25 25 23 20 19 19 19 19 19 20 20 20 20 20 19 19 19 17 17 17 17 16 14 14 14 14 15 16 15 14 13 13 12 11 11 13 13 13 13 13 12 11 10 9 7 6 6 5 5 5 4 4 4 5 7 8 8 8 7 6 6 6 6 6
11 9 8 10 13 14 14 14 14 14 14 15 19 22 23 24 25 25 25 26 27 26 26 25 23 22 21 20 20 20 20 20 21 21 21 20 20 18 17 16 16 15 14 12 13 13 13 15 16 15 14 13 13 12 11 12 13 14 14 15 14 13 12 11 10 10 9 9 9 8 7 7 6 6 6 7 8 9 8 8 7 7 7 7 6
12 10 7 6 10 14 17 16 15 15 16 16 19 21 23 25 26 26 25 27 29 27 26 25 24 23 22 21 21 21 21 21 21 22 22 21 20 18 16 15 15 14 13 12 13 13 13 15 16 16 15 14 13 13 12 13 14 15 16 16 15 13 12 11 11 11 11 11 12 11 10 10 9 8 7 7 8 8 8 9 9 8 8 8 8
14 11 10 8 8 11 15 17 17 16 17 17 19 22 25 28 29 28 26 27 28 26 25 24 24 23 22 21 21 21 21 21 21 22 21 21 20 18 16 15 14 13 13 13 13 13 13 14 16 17 16 14 14 13 12 13 14 15 17 17 14 12 11 10 11 12 13 13 12 11 10 10 10 9 9 9 9 9 9 10 10 9 10 11 11
19 15 12 10 9 10 13 15 18 18 19 19 21 23 27 30 30 29 28 28 28 26 25 24 23 23 22 21 22 21 21 22 21 21 20 20 19 17 16 16 15 13 13 12 12 13 14 14 15 16 16 15 14 13 12 12 13 16 18 16 14 12 10 9 9 10 10 11 10 10 10 10 10 9 10 10 10 9 10 11 11 10 12 13 14
25 18 15 14 11 10 11 12 14 17 20 22 22 23 27 31 32 31 30 30 30 29 27 25 24 23 22 22 22 22 22 22 21 20 19 19 18 17 16 16 14 13 12 12 12 13 13 14 14 16 17 16 14 13 13 12 12 15 16 14 12 11 10 8 8 8 8 8 8 10 11 10 9 8 9 10 10 10 10 12 13 13 14 16 16
27 22 18 17 15 12 10 11 12 13 16 20 23 24 26 30 33 33 32 32 32 31 29 27 25 23 22 23 23 23 23 22 20 19 19 18 18 17 16 16 15 13 12 11 12 12 13 13 14 16 16 16 15 15 13 12 12 14 14 12 11 11 10 9 9 8 8 7 8 10 11 10 9 9 10 10 11 12 12 14 15 16 17 18 18
27 24 22 20 18 17 12 10 11 12 13 15 19 23 26 29 33 34 35 34 34 32 31 29 26 23 23 24 24 24 23 22 21 20 19 17 17 17 17 17 16 13 11 10 11 12 13 13 14 14 15 16 17 16 13 12 13 13 13 13 12 11 10 10 9 9 9 8 8 10 11 11 11 11 12 12 13 13 14 15 16 16 17 18 19
26 25 24 23 22 21 15 10 10 10 11 12 15 19 24 28 32 35 36 35 33 32 32 30 27 24 24 25 25 25 24 23 22 20 18 17 17 17 17 17 15 13 11 9 9 11 12 13 14 15 17 18 17 15 14 13 13 13 13 14 13 11 10 9 9 9 9 8 8 9 9 10 10 11 11 11 11 12 13 14 15 16 17 18 20
28 28 27 26 25 23 17 13 13 10 8 9 11 14 19 25 30 34 35 34 32 31 31 30 26 24 24 25 26 26 25 24 22 21 19 17 17 17 17 16 14 13 11 9 8 10 13 14 17 19 19 18 16 14 14 13 13 12 13 13 12 11 10 9 9 8 7 7 7 6 6 6 7 8 8 10 11 11 12 13 15 16 18 19 20
28 29 30 29 28 25 20 17 16 13 9 8 10 13 17 22 27 30 31 32 32 30 31 30 27 25 25 24 25 27 26 24 23 21 19 18 18 18 18 16 15 14 12 10 10 13 15 16 19 20 19 18 16 15 13 12 12 11 11 11 11 11 10 9 8 7 6 6 5 5 5 6 6 8 9 10 12 13 14 15 16 18 19 20 21
26 28 30 32 32 29 25 21 19 16 12 11 11 14 19 23 26 28 30 32 32 32 33 32 28 26 24 23 25 27 26 25 23 21 20 19 19 20 20 18 16 16 14 12 13 15 16 17 18 19 19 18 17 15 13 11 10 10 10 10 9 8 8 7 6 5 4 4 5 6 7 8 9 10 12 13 15 16 17 18 19 19 20 20 20
26 27 30 32 33 33 30 25 21 18 15 13 13 15 20 24 26 28 31 32 33 34 35 33 30 26 24 23 25 26 26 25 23 21 19 18 17 20 21 19 18 18 17 15 15 15 15 16 16 17 18 16 14 13 11 9 9 9 9 8 8 8 7 6 4 3 2 3 5 8 10 12 13 15 16 17 18 18 18 19 19 19 19 19 18
24 25 26 29 31 32 32 27 22 18 15 12 13 16 20 22 25 28 30 32 33 33 34 34 31 27 25 25 25 26 25 25 24 22 19 17 16 18 20 19 18 19 19 17 16 16 16 16 16 16 16 14 13 12 11 10 10 10 9 9 9 8 7 5 4 4 5 7 10 13 15 16 17 18 19 19 20 20 19 19 19 19 19 20 20
24 23 23 25 27 29 30 29 24 20 16 11 10 13 16 18 20 24 27 30 31 30 30 32 31 29 28 27 26 27 26 24 24 23 21 18 16 16 17 17 17 18 19 19 19 19 19 18 18 17 16 15 14 13 13 12 12 11 10 10 9 8 7 6 7 8 9 11 13 16 17 19 20 20 20 20 20 20 19 19 19 19 19 20 20
25 23 21 21 22 24 26 28 27 26 22 15 9 9 11 12 14 17 21 24 24 24 26 30 30 30 30 28 27 27 26 24 23 23 22 20 16 15 16 17 17 18 19 19 20 21 21 20 20 18 17 16 15 15 14 13 13 11 10 9 8 8 8 8 9 11 12 13 15 17 18 18 18 19 19 19 18 18 18 18 17 17 17 17 18
23 21 20 18 18 19 21 24 26 28 27 21 13 7 6 7 8 10 14 17 18 18 20 22 24 25 27 27 26 25 24 23 24 24 22 20 17 14 15 17 17 18 19 20 21 21 21 20 19 18 15 13 13 13 12 11 9 8 7 7 8 8 9 9 10 12 13 14 15 16 16 16 17 18 18 17 16 16 15 15 14 14 14 14 15
19 19 19 18 17 16 17 19 21 24 26 23 18 11 4 6 8 8 9 11 14 16 16 15 16 19 21 22 23 22 22 23 24 23 21 19 17 15 16 17 18 19 21 21 21 21 20 18 17 16 13 10 9 10 9 8 8 7 7 8 9 11 11 12 14 15 16 16 16 16 16 16 16 16 15 14 13 12 12 13 13 13 13 13 12
18 17 18 19 19 18 16 16 16 18 20 20 20 18 14 11 10 9 9 10 13 16 16 14 15 16 18 19 20 21 21 21 22 21 19 18 17 15 16 18 18 19 21 22 22 21 17 13 11 11 9 6 6 7 8 9 9 9 10 11 13 15 16 17 18 19 18 17 16 14 13 12 11 10 10 10 10 11 12 12 12 13 12 12 11
19 18 18 19 21 21 19 16 14 15 16 16 17 18 17 15 13 11 9 10 11 11 13 13 15 17 19 19 18 19 19 20 20 20 20 20 20 18 17 17 18 17 17 17 16 15 13 11 9 9 9 8 9 9 8 10 11 12 13 15 16 17 17 17 16 15 13 11 9 7 7 6 7 7 8 9 10 10 11 11 12 12 11 10 9
20 20 21 21 22 22 22 19 17 15 14 14 15 16 16 16 15 13 11 10 9 9 11 12 13 15 16 16 16 16 16 16 17 18 17 16 17 16 14 14 13 12 11 10 10 11 11 9 8 8 8 8 11 12 12 13 15 15 15 15 15 13 12 10 9 8 6 5 5 5 5 6 7 7 8 9 10 10 10 11 11 11 9 8 7
19 21 22 23 22 22 22 22 20 18 16 15 15 16 16 16 16 15 13 12 11 11 11 10 9 10 10 9 10 10 10 10 11 11 11 11 11 10 10 9 8 7 6 6 7 7 8 8 7 8 9 10 12 14 14 14 13 12 10 9 7 6 5 4 3 3 3 3 4 4 5 6 8 9 9 10 10 10 11 11 10 9 8 6 6
18 20 21 22 22 21 22 22 22 21 20 18 18 18 18 17 17 16 13 11 10 9 9 8 7 6 5 5 5 5 4 3 3 4 4 5 5 5 5 5 4 3 4 6 7 7 8 8 8 8 9 9 10 10 9 8 7 6 5 4 3 3 3 2 2 2 2 3 4 5 6 8 9 9 10 10 10 11 10 9 9 8 7 6 6
19 19 20 21 21 21 21 22 22 22 21 19 17 17 18 18 17 16 15 13 10 9 9 8 6 4 2 1 0 1 1 1 1 1 1 1 1 2 4 5 5 7 9 8 7 7 6 7 6 6 7 7 6 6 5 5 5 4 4 4 3 3 3 2 2 3 3 4 5 6 7 8 9 9 9 9 9 8 8 7 7 7 6 6 6
19 20 20 20 21 21 21 22 22 22 21 19 17 16 15 15 15 15 15 14 13 13 13 12 11 9 7 5 3 2 1 1 1 1 2 2 3 4 5 5 5 7 7 5 3 4 5 5 5 5 5 5 6 6 6 5 5 4 3 3 3 2 3 3 4 4 5 5 6 6 7 7 7 7 7 7 6 6 6 6 5 5 4 4 5
19 19 20 20 20 20 21 22 22 22 21 20 19 17 16 14 13 13 13 13 12 12 12 12 12 11 10 9 9 8 7 7 7 6 5 5 5 5 5 5 4 4 4 3 3 5 6 6 6 6 6 6 6 6 6 5 4 3 3 3 3 3 4 4 4 5 5 5 5 5 5 5 5 5 5 5 5 5 4 4 5 4 4 3 2
20 19 19 20 19 18 18 19 21 22 22 21 19 18 17 15 14 14 14 13 11 9 9 9 9 8 7 7 8 9 9 8 9 8 8 8 7 6 6 6 5 4 5 5 5 6 7 7 7 7 7 6 5 5 5 4 4 3 3 3 3 4 4 4 4 4 3 3 3 3 2 3 3 4 4 5 5 5 5 6 6 6 5 5 5
21 20 19 19 18 17 17 16 17 18 19 19 19 18 17 16 15 14 14 13 12 10 9 8 8 8 7 7 8 9 8 7 6 6 6 5 5 5 5 6 5 5 5 5 5 6 6 6 7 7 6 5 5 4 4 4 4 4 4 4 4 4 3 2 1 1 1 1 1 2 3 4 4 5 5 6 6 7 8 8 7 7 8 8 8
20 19 19 18 18 17 16 15 14 14 14 15 16 16 16 16 16 16 15 14 13 11 11 10 10 9 8 8 8 7 7 6 6 6 6 6 5 6 6 6 7 7 7 5 4 5 5 5 5 6 6 6 5 5 5 4 4 4 4 4 2 0 1 2 2 3 3 3 4 5 5 5 5 6 7 8 9 9 9 10 10 10 11 11 11
19 18 18 18 17 16 14 14 13 13 13 13 13 13 14 15 16 17 17 16 15 14 14 13 12 10 9 9 9 7 7 7 6 6 6 6 5 6 6 6 7 8 8 6 5 6 6 7 6 6 6 6 5 5 5 5 4 3 2 1 2 4 4 5 5 5 6 6 6 6 6 6 7 8 9 10 11 11 11 11 11 12 12 12 12
17 16 16 17 16 14 13 13 13 13 13 12 12 13 13 14 14 15 15 15 16 16 17 16 15 13 11 11 10 9 8 7 5 4 4 4 5 6 6 7 7 7 7 7 7 7 7 8 7 7 6 6 5 5 5 4 2 2 3 5 6 6 7 8 8 7 7 7 7 7 8 9 9 10 10 11 11 11 11 12 12 12 12 12 11
16 15 15 16 16 15 13 13 12 13 12 12 11 11 11 12 13 13 13 14 15 16 17 17 17 15 14 12 11 11 10 8 6 4 2 2 4 5 6 7 7 7 8 8 7 7 8 8 7 6 6 5 4 3 2 2 5 6 7 7 8 9 9 9 8 7 7 7 8 9 10 9 9 9 10 10 10 11 11 11 11 11 10 10 10
14 14 13 14 14 14 14 14 13 13 12 11 11 10 9 9 10 10 11 12 13 14 15 16 17 16 15 13 11 10 9 8 7 5 3 1 1 2 3 4 4 4 5 6 6 6 6 6 5 4 4 3 2 3 5 7 8 9 8 9 9 10 9 8 7 7 8 9 9 10 10 9 9 9 9 10 10 11 11 10 10 9 9 9 9
13 13 13 13 12 12 13 13 13 14 13 12 11 9 8 7 7 7 8 9 10 11 13 14 15 15 15 14 12 10 8 7 7 6 5 4 3 1 1 1 2 3 3 4 4 4 4 4 4 3 3 4 6 8 10 10 9 9 9 10 9 9 8 8 7 7 8 9 9 9 9 9 9 9 9 9 9 9 9 9 8 8 9 8 8
11 12 12 12 12 12 12 12 13 15 15 14 12 10 8 6 5 5 6 7 8 9 10 12 13 14 14 15 14 12 8 6 5 5 4 4 4 2 0 1 3 3 3 4 4 4 4 5 6 7 8 10 11 11 11 11 11 10 10 9 9 8 8 8 8 7 8 8 8 8 8 7 8 8 8 7 7 7 8 8 7 7 7 7 7
10 10 11 11 12 12 12 11 12 13 15 15 14 12 9 7 6 5 5 6 6 7 8 10 11 13 14 14 14 12 10 7 6 5 3 3 3 2 1 2 3 3 4 5 6 6 7 9 11 12 12 13 13 12 12 11 11 11 10 9 9 9 9 8 8 7 7 7 7 7 6 6 6 7 7 7 7 7 7 7 7 7 7 8 8
8 8 9 10 11 12 13 12 11 11 13 14 15 13 11 8 7 5 4 5 5 6 7 9 11 13 14 14 13 12 11 9 6 4 2 2 2 1 2 2 3 5 6 7 8 10 11 13 14 14 13 13 12 12 12 12 11 11 10 10 9 9 8 8 8 7 6 6 6 6 5 5 5 6 6 7 8 8 8 7 7 7 8 9 9
6 7 8 9 9 10 12 12 11 10 11 13 14 14 12 9 7 6 4 4 5 5 6 7 10 12 13 13 13 13 11 8 6 4 3 3 3 2 3 4 5 7 8 9 10 12 13 14 14 13 12 12 12 12 12 12 11 10 9 8 7 7 7 7 7 7 6 6 6 6 6 6 5 5 6 7 8 8 7 7 7 7 8 9 10
5 6 7 8 9 10 10 10 9 8 9 11 13 14 13 9 6 6 4 3 4 5 6 7 9 11 12 12 13 13 10 7 5 5 4 4 4 4 4 4 5 7 9 11 11 12 13 14 13 12 12 12 11 11 11 10 9 8 7 6 6 6 7 7 7 6 6 6 6 6 6 6 6 6 7 7 7 7 7 6 6 6 8 9 10
5 6 7 8 9 9 9 8 6 6 8 10 12 14 13 9 5 5 4 3 3 4 6 7 8 9 10 10 11 12 11 9 6 5 5 5 4 4 4 4 5 6 8 10 11 12 13 13 13 12 11 10 10 9 9 8 7 6 5 5 6 7 7 6 6 5 5 4 4 5 5 5 5 5 5 5 6 6 6 5 5 6 7 8 8
6 7 8 8 9 8 8 7 6 5 6 8 10 12 12 11 7 4 4 4 4 4 5 7 7 7 7 8 10 11 11 11 8 6 4 4 4 4 4 4 4 5 6 8 10 13 14 13 12 11 9 9 8 8 7 6 6 5 5 6 6 6 6 5 5 4 3 3 3 3 3 4 4 4 4 5 5 6 5 5 4 5 6 6 7
8 8 8 8 8 7 7 7 6 5 4 5 7 9 10 10 8 5 4 5 5 6 6 7 7 6 6 7 8 9 10 11 11 8 5 4 4 4 4 4 4 4 4 5 8 12 14 13 12 10 8 8 8 7 7 6 5 5 5 5 6 6 5 5 4 3 3 2 2 3 3 4 5 6 6 7 7 7 7 6 5 4 5 5 6
9 10 10 9 8 7 7 7 6 6 5 5 5 6 7 8 8 6 5 5 7 7 7 7 7 5 5 7 8 8 8 10 11 9 6 4 3 4 3 3 3 3 4 5 8 10 12 12 11 10 8 8 7 6 6 5 5 5 5 5 5 5 4 4 3 3 2 2 3 4 5 5 7 8 8 9 9 9 8 8 7 6 5 5 5
10 10 10 10 10 9 8 8 7 7 7 7 5 5 5 6 6 6 6 5 7 8 8 8 7 5 5 7 8 7 7 8 9 9 8 5 4 3 3 2 2 2 3 5 7 9 10 10 10 9 8 7 6 5 5 5 5 5 5 5 5 4 3 3 2 1 2 2 3 5 6 7 8 9 9 9 9 8 8 8 8 7 7 5 5
12 11 10 11 11 11 10 9 9 8 8 8 8 6 5 5 5 5 5 5 6 7 8 8 7 6 6 7 7 6 6 6 6 7 8 7 5 3 3 2 1 2 4 5 6 8 8 8 8 7 6 6 6 5 5 5 5 5 5 5 4 3 2 1 0 1 3 4 5 6 7 7 8 8 8 8 8 7 7 7 6 6 6 5 4
14 12 11 11 11 12 12 11 10 10 10 9 9 8 7 6 6 6 5 4 5 6 6 6 5 4 5 7 7 6 5 5 4 5 6 7 6 4 3 2 2 2 3 5 6 7 7 7 6 6 6 6 6 5 5 5 5 4 4 3 2 2 1 2 3 4 5 5 6 6 6 6 6 6 6 7 7 7 7 7 6 6 5 3 2
15 13 11 10 10 12 13 13 12 11 11 10 8 8 9 8 7 7 6 5 4 5 6 6 5 6 6 5 5 6 6 6 5 5 5 5 6 6 4 2 1 1 1 3 4 5 6 6 6 5 6 6 6 6 5 5 4 3 3 2 3 3 4 4 5 5 6 6 5 5 5 4 5 5 6 6 7 7 8 8 8 6 5 2 2
15 12 10 9 10 11 13 14 13 11 10 10 10 9 9 8 8 8 8 7 6 4 5 6 6 7 7 7 5 5 6 7 6 6 6 6 6 6 5 3 0 1 1 2 4 5 5 5 6 6 6 6 5 5 4 4 4 4 4 4 5 5 5 5 5 5 5 4 4 3 3 3 4 5 6 6 7 8 8 8 7 6 4 3 4
Wind_Direction
281 271 264 254 246 242 252 260 253 256 267 268 260 250 242 237 229 226 226 224 222 218 218 220 220 218 217 216 216 216 217 218 219 221 223 223 221 219 220 222 224 226 225 225 224 221 221 219 218 220 219 219 218 217 217 206 199 202 207 212 217 215 198 152 149 159 160 162 164 162 163 163 173 191 206 208 206 207 214 223 227 238 244 234 236
291 287 279 262 253 251 257 256 250 251 258 259 251 242 239 236 227 223 223 221 220 218 218 218 217 217 219 218 216 217 218 218 220 222 223 223 222 220 221 222 223 223 223 224 223 220 217 214 214 215 215 216 214 213 212 204 198 199 203 205 205 201 191 171 156 160 168 172 173 176 176 166 169 189 203 210 213 212 210 215 227 245 249 244 246
300 294 289 275 263 262 265 261 254 253 255 257 247 236 234 231 225 222 222 220 219 219 218 217 217 219 220 219 217 217 218 219 220 222 222 221 222 222 221 221 221 222 222 222 220 217 213 210 211 213 213 214 213 212 210 204 199 196 195 194 191 190 191 192 188 181 183 191 202 219 212 179 172 185 192 201 208 207 203 209 224 238 245 247 250
310 295 283 271 262 263 263 260 256 252 250 246 238 232 231 227 222 220 221 221 220 220 219 218 218 221 221 221 220 219 219 219 220 221 220 220 221 221 221 221 220 221 222 221 217 216 214 211 210 210 211 212 211 212 209 207 203 196 187 185 185 188 192 201 213 217 219 227 235 250 249 224 201 196 201 204 205 205 206 211 219 223 229 234 237
338 318 287 261 255 256 255 255 256 252 248 241 232 231 231 227 221 218 218 221 222 221 220 219 219 221 223 223 221 219 218 217 218 218 218 218 218 219 221 221 221 220 219 216 216 217 216 213 211 208 208 209 210 210 209 211 210 201 190 184 186 192 199 211 225 235 243 250 257 264 262 248 231 215 217 218 212 211 213 216 221 222 224 230 237
357 347 326 281 256 252 251 253 254 251 248 242 233 232 231 226 222 221 220 221 224 222 219 218 219 221 225 225 221 219 218 217 217 216 216 216 216 216 217 216 216 215 212 210 212 215 214 213 210 208 208 207 209 211 211 213 213 207 197 190 189 197 208 221 234 244 253 258 261 265 264 257 246 231 222 219 218 220 222 227 233 237 242 250 260
3 357 343 319 283 265 261 260 258 252 244 238 233 232 230 226 223 224 223 224 226 222 217 218 220 221 225 225 220 219 220 218 215 214 214 214 213 212 208 205 202 199 201 204 206 209 212 213 211 210 209 206 206 212 215 217 216 207 198 193 195 203 215 228 241 250 257 258 254 253 253 250 246 238 228 223 224 229 234 241 249 255 261 268 275
6 4 358 344 310 280 270 267 265 257 245 235 230 231 230 227 224 223 222 223 222 217 215 218 220 221 223 221 218 218 219 215 211 210 211 209 207 202 195 191 188 188 194 199 203 208 210 211 214 215 212 206 207 209 207 208 206 196 191 193 200 207 213 227 240 246 248 247 240 234 236 239 239 237 235 233 235 243 252 261 270 274 276 278 282
5 4 6 6 350 309 281 272 268 261 252 242 235 233 231 228 226 222 219 220 219 215 213 214 217 221 221 217 217 218 215 211 207 204 201 197 193 190 189 188 188 192 198 199 205 209 207 210 216 214 211 210 207 197 186 186 188 187 188 195 201 203 206 216 227 233 235 236 228 223 227 232 233 237 242 243 249 259 266 273 278 282 281 280 281
5 4 1 2 2 347 312 284 273 265 258 251 243 238 233 228 226 222 215 215 217 216 213 212 214 220 221 217 216 216 211 205 200 196 193 191 189 190 194 195 193 195 200 202 209 210 204 205 209 207 208 206 194 179 172 174 179 184 193 200 198 196 200 204 209 216 222 226 225 225 230 235 236 240 247 250 254 261 266 272 278 282 284 284 285
5 5 1 356 355 354 342 310 289 274 261 258 251 244 237 230 226 221 214 212 214 216 215 213 213 217 220 218 217 215 207 201 198 195 193 191 193 196 197 195 193 194 200 207 215 212 202 197 196 196 197 193 181 172 170 172 174 179 188 194 194 193 197 200 205 210 214 217 223 229 235 241 243 246 252 256 260 265 271 277 282 287 290 291 291
10 10 7 2 355 352 350 342 323 294 264 261 260 251 244 235 227 221 214 211 213 218 217 214 211 212 218 221 219 213 206 202 199 197 196 194 195 196 195 193 193 194 199 209 218 213 202 193 187 183 181 179 175 172 170 169 171 177 184 189 193 194 194 197 204 211 216 222 228 232 239 246 251 255 260 264 268 273 279 283 287 291 293 294 293
16 16 13 9 2 357 356 359 350 326 284 267 268 263 257 246 233 223 215 210 212 218 219 215 209 209 217 222 217 209 205 204 202 199 199 199 197 196 195 195 196 197 199 209 211 198 189 181 174 172 172 173 173 174 172 171 172 175 180 184 185 187 189 194 202 209 217 226 233 240 249 259 266 272 277 279 280 281 283 283 286 288 291 292 293
16 18 17 16 11 4 0 360 354 337 310 288 281 278 271 256 239 224 212 207 210 215 216 212 205 205 215 218 211 206 205 204 203 203 203 205 205 201 199 200 202 199 197 198 191 177 171 170 169 168 169 171 173 175 176 175 176 176 177 179 178 178 182 186 194 203 212 227 243 257 268 276 281 284 286 287 288 288 290 291 292 292 293 294 296
17 19 21 21 17 11 4 359 355 345 322 298 285 274 261 250 239 225 212 207 210 213 211 206 200 202 210 213 208 206 206 203 202 204 206 210 211 208 204 206 206 200 193 191 188 178 171 171 172 173 175 175 176 180 182 181 184 185 186 189 189 191 195 196 201 210 223 248 271 286 297 303 303 301 298 296 294 294 295 296 297 297 297 298 299
20 21 22 23 21 17 11 2 358 354 333 300 275 257 243 236 231 224 214 208 210 213 208 199 196 199 205 210 210 207 205 204 202 203 205 207 210 209 208 209 207 198 190 188 189 187 183 182 185 187 187 185 184 188 188 184 185 190 195 200 200 202 207 208 209 225 258 291 306 313 316 316 313 310 306 302 300 300 300 300 300 300 300 299 300
21 21 22 23 22 20 17 9 2 358 344 307 267 244 233 226 219 216 212 208 211 215 207 195 193 199 204 207 208 206 204 202 201 202 204 206 207 206 205 206 204 196 191 191 192 192 191 191 193 195 194 191 187 186 182 178 182 193 199 199 196 196 199 208 233 267 288 302 312 317 317 315 312 309 306 303 301 300 300 300 300 299 299 298 297
21 19 19 21 21 22 23 19 13 10 0 329 278 244 233 222 212 209 208 208 210 213 206 193 191 199 205 207 207 206 204 203 202 203 205 206 207 205 201 201 200 197 196 196 194 193 192 190 192 195 196 195 193 192 190 187 187 190 193 194 197 204 217 243 269 284 293 300 306 309 308 306 304 303 301 299 297 296 295 296 296 296 296 297 298
23 18 15 16 21 25 26 26 26 26 20 2 323 270 241 221 211 208 206 206 209 209 202 195 192 194 199 204 207 208 205 203 203 204 205 207 209 210 206 202 199 200 201 198 194 193 192 190 189 191 194 195 196 196 195 195 195 196 203 215 227 240 258 275 283 287 291 295 299 300 299 298 296 295 295 294 294 295 296 297 297 297 299 300 302
25 21 15 14 19 24 28 29 31 34 33 24 4 319 257 204 194 204 199 199 206 203 193 190 186 182 186 195 203 207 206 202 201 202 205 208 210 213 212 205 201 200 198 195 192 189 187 186 183 183 186 190 196 198 197 203 211 216 229 249 264 272 279 284 286 288 290 292 293 292 290 288 287 288 289 291 293 295 297 298 299 302 304 305 305
26 24 21 20 20 23 30 34 36 39 41 39 35 28 40 125 137 153 164 171 184 183 176 182 184 175 176 185 193 198 198 195 195 196 199 203 204 207 207 203 203 202 196 191 189 183 179 181 179 179 180 181 193 206 215 229 243 253 266 275 280 283 286 288 288 288 287 286 286 284 281 281 282 284 285 286 288 291 295 299 303 304 306 306 306
28 28 29 30 29 26 27 36 43 45 47 49 52 53 56 76 104 123 138 150 161 160 157 168 181 177 175 179 181 182 182 183 185 185 186 187 186 187 189 187 188 189 187 186 182 176 175 183 187 192 201 212 224 227 227 234 246 258 268 273 277 279 281 280 279 279 280 281 281 280 279 278 278 278 280 282 288 296 300 304 306 308 311 313 312
33 32 34 37 39 34 29 30 38 46 51 54 58 62 61 61 69 86 113 136 153 157 151 159 171 171 172 175 171 168 167 167 167 167 169 171 170 169 174 176 178 180 184 189 190 190 200 217 224 224 232 258 277 273 261 258 262 265 268 269 270 270 268 267 268 270 273 275 275 273 269 267 269 274 282 291 299 305 308 311 314 317 322 324 319
35 38 40 41 43 42 37 34 34 39 46 51 55 61 63 62 63 67 76 91 112 128 131 139 152 157 162 165 161 157 157 157 158 161 163 168 172 175 180 185 188 193 200 207 209 209 213 221 227 226 232 255 271 268 261 259 258 259 260 261 260 258 257 257 260 261 263 262 261 263 265 270 280 287 295 302 307 312 317 323 326 328 329 327 318
34 39 41 41 42 45 44 42 41 41 46 49 53 61 66 69 70 68 61 60 69 82 91 102 117 123 127 133 136 140 147 153 164 172 174 177 183 187 187 185 188 194 198 197 194 196 202 210 220 228 232 240 246 246 245 247 248 250 251 249 245 244 245 247 244 237 244 253 262 273 280 285 292 297 304 312 320 327 332 335 335 332 327 317 302
35 40 43 41 40 42 46 47 46 45 48 53 59 66 69 66 63 61 58 57 59 67 73 80 90 91 83 77 79 85 100 116 140 169 177 175 174 175 177 178 186 211 222 219 215 216 223 228 232 237 238 239 244 247 246 242 236 229 220 209 203 198 184 176 187 211 246 269 277 285 290 295 302 310 321 329 335 336 336 337 334 328 319 306 295
37 40 44 46 45 43 45 48 49 48 48 52 59 66 67 61 56 54 57 59 58 64 70 71 76 83 86 92 49 289 267 280 294 277 281 315 308 248 245 245 243 240 235 231 231 237 246 249 250 252 249 243 239 234 220 200 186 179 171 163 158 158 161 184 227 250 270 281 286 293 300 309 319 326 332 335 335 335 335 335 331 323 310 301 301
42 40 41 45 49 51 50 50 51 52 51 51 54 60 62 61 58 58 62 62 58 58 59 58 59 59 56 57 63 77 121 130 155 196 209 230 228 226 225 222 223 229 229 231 250 267 262 248 233 221 210 197 187 177 169 164 164 165 166 172 183 205 228 248 264 276 285 291 296 306 316 323 328 329 332 335 337 340 342 341 340 337 324 311 310
45 45 42 39 42 48 53 54 54 55 55 55 55 57 58 58 55 54 57 58 56 54 51 48 50 51 51 52 52 49 50 53 56 65 78 92 112 125 126 124 136 177 198 201 213 218 211 199 186 174 167 164 162 159 159 166 175 185 198 215 231 250 265 277 289 297 302 308 315 321 324 326 328 336 349 356 359 2 5 8 16 26 30 19 356
37 41 42 40 36 36 42 49 52 54 55 55 56 58 60 61 60 56 53 50 46 43 39 36 38 42 46 56 62 58 52 48 47 51 61 73 85 94 103 112 127 156 168 168 175 182 179 170 163 160 160 164 167 169 177 191 208 220 232 247 265 282 293 302 309 312 316 321 323 324 334 353 12 25 29 30 34 42 46 46 44 41 37 32 23
30 33 37 37 35 32 33 37 42 48 52 54 55 56 59 62 62 60 57 54 49 45 43 41 42 41 40 48 57 59 60 61 61 66 78 93 107 117 124 125 126 134 141 144 155 168 171 168 167 167 173 183 193 200 210 219 228 239 257 276 288 297 303 306 311 324 347 10 40 54 56 57 55 54 55 59 62 62 59 56 52 46 39 36 31
28 33 34 32 30 29 30 32 34 38 43 48 52 54 55 58 60 59 57 57 56 54 52 51 51 50 49 50 53 57 67 77 82 87 93 102 116 126 130 132 135 140 144 153 175 187 186 190 194 193 198 207 213 217 226 235 247 266 282 288 290 283 117 109 105 99 88 81 79 78 76 75 74 74 74 72 68 64 60 57 52 48 47 47 47
30 34 33 30 29 28 28 30 32 33 35 40 47 53 54 56 57 56 54 53 54 56 56 55 54 53 51 51 52 55 65 74 82 92 101 112 127 138 144 150 158 162 165 178 205 213 208 211 215 214 217 225 231 237 245 255 265 274 271 195 123 117 113 107 101 98 95 91 88 86 83 80 79 79 76 71 66 62 59 57 55 54 54 54 54
29 35 35 33 32 32 30 30 31 33 34 38 46 54 56 55 53 53 52 51 50 50 50 50 49 47 45 44 44 44 46 52 63 82 112 139 154 166 175 183 191 197 200 206 218 223 222 224 227 229 236 242 246 252 258 259 244 173 138 129 123 118 113 109 106 103 98 92 87 81 78 78 77 76 73 69 65 62 59 59 59 57 54 52 51
27 34 39 41 41 40 37 34 33 34 35 37 43 50 52 50 49 51 52 50 46 44 43 41 38 35 33 31 33 34 35 38 43 53 89 160 181 189 194 199 205 213 219 222 222 221 223 228 233 239 244 250 255 255 233 163 143 135 131 128 123 118 114 111 109 103 94 87 82 81 81 80 78 75 71 65 62 61 59 59 58 55 52 50 48
26 30 38 45 48 47 45 41 39 39 37 35 36 40 42 41 42 47 51 49 45 41 38 34 31 26 21 17 17 19 22 25 27 31 39 52 204 202 201 202 203 205 210 213 215 217 221 226 230 234 237 232 198 149 135 134 134 131 128 124 120 116 114 111 104 94 87 84 84 85 84 79 73 69 65 63 61 59 57 56 55 52 50 47 45
27 29 35 41 43 45 48 48 44 42 42 39 35 31 27 23 26 36 44 45 43 40 37 33 29 24 15 9 7 5 7 12 15 17 18 11 356 326 200 175 168 169 179 188 193 201 208 208 199 183 159 137 130 130 132 133 131 126 121 119 117 114 110 105 96 88 84 86 88 87 82 76 69 65 62 62 61 60 58 55 53 51 48 45 42
27 25 26 29 31 36 44 48 46 42 40 38 34 28 19 6 357 11 31 36 36 36 35 33 31 24 16 10 6 2 0 4 9 12 12 5 357 356 42 137 143 155 170 173 169 169 171 161 145 132 126 124 126 129 130 129 125 120 116 113 111 109 106 100 94 90 87 87 89 85 77 71 65 61 61 62 61 60 60 56 50 46 40 33 26
20 19 16 17 20 23 27 32 37 37 34 31 28 23 16 2 342 341 10 26 29 31 32 33 31 24 16 12 9 5 3 3 5 11 18 8 357 1 92 137 149 162 166 157 150 147 144 136 128 123 123 122 122 123 123 121 118 114 111 109 106 104 101 97 94 93 90 88 87 82 73 67 62 59 61 61 56 53 49 44 38 33 24 16 9
4 7 9 10 11 12 13 15 19 25 26 24 20 17 12 360 339 330 351 13 18 23 31 34 31 23 15 14 15 13 8 2 1 12 38 35 21 61 123 134 152 162 159 151 144 140 134 129 125 124 123 122 120 120 118 117 115 111 108 105 102 100 99 97 95 94 89 83 80 75 66 61 60 58 56 52 48 45 39 34 31 25 17 12 8
349 355 1 359 356 359 6 9 12 16 18 17 14 11 8 355 330 317 334 3 11 20 30 30 26 20 16 17 22 21 13 5 9 29 57 61 60 87 120 136 151 158 156 151 145 139 134 130 129 128 126 122 121 121 120 117 114 110 106 106 105 104 102 99 96 92 86 80 75 72 69 64 61 57 52 46 44 43 37 32 30 24 16 12 11
348 353 357 353 349 352 358 4 9 13 13 13 12 10 7 360 335 315 322 349 6 19 26 21 17 18 18 21 26 26 21 16 23 38 49 53 55 71 99 128 149 157 156 153 149 143 140 137 135 132 129 125 123 124 124 121 118 115 113 115 116 113 109 105 100 94 88 81 76 75 75 73 70 66 57 47 43 41 34 30 28 22 17 16 16
349 348 352 351 351 355 358 359 4 12 14 15 15 12 12 14 360 320 314 335 356 12 18 12 7 13 19 22 25 28 28 25 25 28 33 40 51 67 84 107 137 153 158 160 156 150 146 145 142 139 135 133 132 132 132 132 131 129 128 129 129 126 120 113 104 96 89 85 84 85 83 78 75 69 53 39 33 30 28 29 23 14 15 20 21
351 340 341 341 342 350 356 351 345 354 10 17 17 14 16 23 23 339 311 323 338 349 2 3 359 2 10 14 17 25 29 28 25 21 21 27 43 64 77 89 112 137 155 165 166 161 156 153 152 152 148 145 144 144 145 148 149 142 135 133 132 131 124 113 105 102 98 98 98 92 76 60 50 41 23 9 4 3 7 14 13 3 1 6 13
352 346 344 341 336 338 346 342 331 324 337 1 12 13 14 22 27 11 325 314 321 333 350 0 357 354 358 1 3 11 20 23 21 20 19 24 36 51 65 75 87 110 134 150 162 165 163 160 160 163 161 157 158 158 158 159 154 144 136 131 130 129 123 115 111 111 105 98 83 57 36 21 12 3 353 346 342 338 338 342 341 338 342 344 350
346 343 344 347 344 339 338 337 329 316 311 325 351 4 7 14 21 16 349 321 316 324 339 351 354 353 357 357 353 353 3 12 16 16 15 20 35 42 50 65 72 88 115 131 145 155 160 162 166 170 169 167 168 167 166 162 152 143 138 134 130 127 124 118 117 109 84 61 37 16 6 356 348 341 334 329 327 323 321 320 316 312 316 320 326
354 346 345 348 350 347 341 337 332 323 314 309 311 324 339 354 6 12 3 339 320 319 329 340 343 342 347 350 350 347 349 358 9 14 16 23 41 46 45 62 92 113 131 142 151 158 164 170 176 177 175 175 178 175 170 162 151 143 140 136 130 128 124 119 117 88 24 2 350 345 343 340 338 336 334 333 333 331 328 324 317 310 306 298 296
7 1 354 350 349 346 341 334 327 320 313 306 302 303 309 320 334 349 357 350 334 323 323 329 335 337 339 345 350 349 345 348 0 11 16 22 36 53 60 66 108 155 167 172 176 180 184 187 186 182 181 184 186 181 169 159 150 145 142 139 137 139 139 147 259 306 320 320 325 332 337 340 343 346 348 350 352 351 349 343 334 325 317 297 278
8 2 355 353 352 351 349 344 335 325 317 307 296 289 289 295 305 316 327 335 338 331 322 315 310 308 322 338 345 340 331 333 344 356 7 16 22 31 54 70 85 150 184 194 199 201 203 202 196 190 188 185 180 173 164 159 156 156 158 160 173 198 233 266 282 294 304 313 323 334 342 351 358 1 2 2 2 2 2 358 351 345 340 321 264
6 2 1 4 6 4 2 359 352 344 340 334 318 300 292 287 284 289 299 306 316 324 319 305 282 267 274 299 322 326 321 321 322 322 334 357 10 13 21 46 76 99 153 190 198 200 202 201 194 187 183 179 174 173 174 175 180 189 202 221 241 256 269 279 289 298 306 314 328 342 352 4 10 10 7 5 2 1 1 1 1 2 4 16 135
3 5 6 7 6 5 7 9 7 358 351 349 347 338 325 307 286 276 281 289 292 292 290 284 275 269 271 277 283 296 308 315 315 310 310 324 346 3 11 13 32 124 140 180 191 188 185 185 185 184 185 188 191 196 203 213 224 233 244 255 263 271 281 289 295 303 309 319 337 356 13 20 16 11 6 2 357 355 356 357 359 9 28 74 127